GORIZONT 18 (20107 NORAD) Tracking and Keplerian Element Data

This shows tracking and keplerian element data for the satellite.

Feedback or suggestion? Click here.




ElementValue
Catalog20107
NameGORIZONT 18
Epoch Orbit12945
Epoch Day34.50259259
Epoch Year2025
RAAN337.8219
Inclination12.9201
Eccentricity0.0035833
Argument of Perigee335.5855
Mean Anonmoly259.9381
Mean Motion0.99397749
Decay Rate-1.6E-07
L11 20107U 89052A 25034.50259259 -.00000016 00000+0 00000+0 0 9991
L22 20107 12.9201 337.8219 0035833 335.5855 259.9381 0.99397749129451



Live tracking and technical data element details for GORIZONT 18 (NORAD 20107). GORIZONT 18 can be tracked NOW for your location showing map with azimuth and elevation plus other details from your city location.







IsCatalogInMostPopularTable: catalog: 20107, numindb: 317
Update: records affected: 1



GetName: 20107 GORIZONT 18

Hit Count: updated at: Sat, 17 May 2025 10:10:41 GMT